| time (UTC) | temp F | wind direction | speed knots | gust knots | rain 1hr in | rain 24hr in | rain mn in | humidity % | barometer mb |
| 20260505100922 | 51 | 134 | 0.9 | 0.9 | 0.00 | 0.23 | 0.23 | 93 | 1008.5 |
| 20260505100420 | 51 | 217 | 2.6 | 2.6 | 0.07 | 0.23 | 0.23 | 93 | 1008.6 |
| 20260505095915 | 51 | 18 | 2.6 | 4.3 | 0.12 | 0.23 | 0.23 | 93 | 1008.8 |
| 20260505095413 | 52 | 49 | 2.6 | 2.6 | 0.12 | 0.22 | 0.22 | 92 | 1009.6 |
| 20260505094908 | 52 | 188 | 2.6 | 4.3 | 0.19 | 0.21 | 0.21 | 92 | 1010.8 |
| 20260505094406 | 52 | 217 | 1.7 | 1.7 | 0.24 | 0.20 | 0.20 | 92 | 1010.6 |
| 20260505093901 | 52 | 295 | 2.6 | 2.6 | 0.24 | 0.18 | 0.18 | 92 | 1010.0 |
| 20260505093359 | 53 | 350 | 4.3 | 5.2 | 0.35 | 0.16 | 0.16 | 91 | 1009.7 |
| 20260505092856 | 53 | 311 | 4.3 | 5.2 | 0.47 | 0.13 | 0.13 | 90 | 1009.9 |
| 20260505092354 | 53 | 351 | 8.7 | 12.2 | 0.42 | 0.09 | 0.09 | 87 | 1009.5 |
| 20260505091851 | 55 | 327 | 7.0 | 13.0 | 0.24 | 0.04 | 0.04 | 85 | 1009.2 |
| 20260505091349 | 57 | 302 | 4.3 | 6.1 | 0.07 | 0.01 | 0.01 | 82 | 1008.9 |
| 20260505090847 | 60 | 1 | 7.8 | 9.6 | 0.00 | 0.00 | 0.00 | 75 | 1008.0 |
| 20260505090345 | 61 | 321 | 2.6 | 5.2 | 0.00 | 0.00 | 0.00 | 68 | 1007.5 |
| 20260505085841 | 62 | 338 | 7.8 | 9.6 | 0.00 | 0.00 | 0.00 | 66 | 1006.8 |
| 20260505085339 | 64 | 6 | 7.0 | 9.6 | 0.00 | 0.00 | 0.00 | 64 | 1006.6 |
| 20260505084837 | 66 | 4 | 15.6 | 19.1 | 0.00 | 0.00 | 0.00 | 65 | 1006.1 |
| 20260505084335 | 68 | 311 | 4.3 | 5.2 | 0.00 | 0.00 | 0.00 | 70 | 1005.5 |
| 20260505083832 | 68 | 334 | 2.6 | 2.6 | 0.00 | 0.00 | 0.00 | 69 | 1005.5 |
| 20260505083330 | 67 | 9 | 3.5 | 4.3 | 0.00 | 0.00 | 0.00 | 71 | 1005.2 |
| 20260505082826 | 66 | 7 | 3.5 | 4.3 | 0.00 | 0.00 | 0.00 | 74 | 1005.0 |
| 20260505082322 | 67 | 68 | 0.9 | 1.7 | 0.00 | 0.00 | 0.00 | 74 | 1004.7 |
| 20260505081819 | 67 | 139 | 0.9 | 0.9 | 0.00 | 0.00 | 0.00 | 73 | 1004.5 |
| 20260505081316 | 68 | 176 | 0.0 | 0.0 | 0.00 | 0.00 | 0.00 | 71 | 1004.5 |
| 20260505080812 | 68 | 205 | 0.0 | 0.0 | 0.00 | 0.00 | 0.00 | 71 | 1004.5 |
| 20260505080309 | 68 | 201 | 0.9 | 0.9 | 0.00 | 0.00 | 0.00 | 69 | 1004.3 |
| 20260505075804 | 68 | 197 | 1.7 | 1.7 | 0.00 | 0.00 | 0.00 | 70 | 1004.6 |
| 20260505075304 | 68 | 182 | 0.0 | 0.9 | 0.00 | 0.00 | 0.00 | 69 | 1004.3 |
| 20260505074758 | 68 | 180 | 0.0 | 0.0 | 0.00 | 0.00 | 0.00 | 70 | 1004.2 |
| 20260505074256 | 68 | 214 | 0.9 | 1.7 | 0.00 | 0.00 | 0.00 | 69 | 1004.2 |
| 20260505073753 | 68 | 185 | 1.7 | 1.7 | 0.00 | 0.00 | 0.00 | 71 | 1004.5 |
| 20260505073251 | 68 | 168 | 0.9 | 1.7 | 0.00 | 0.00 | 0.00 | 71 | 1004.5 |
| 20260505072747 | 68 | 189 | 1.7 | 1.7 | 0.00 | 0.00 | 0.00 | 69 | 1004.7 |
| 20260505072244 | 68 | 178 | 1.7 | 1.7 | 0.00 | 0.00 | 0.00 | 70 | 1004.7 |
| 20260505071739 | 68 | 186 | 1.7 | 1.7 | 0.00 | 0.00 | 0.00 | 71 | 1004.8 |
| 20260505071236 | 67 | 195 | 0.9 | 0.9 | 0.00 | 0.00 | 0.00 | 73 | 1005.0 |
| 20260505070734 | 67 | 178 | 0.0 | 0.0 | 0.00 | 0.00 | 0.00 | 75 | 1004.9 |
| 20260505070230 | 67 | 187 | 0.0 | 0.0 | 0.00 | 0.00 | 0.00 | 73 | 1005.1 |
| 20260505065726 | 67 | 190 | 0.0 | 0.0 | 0.00 | 0.00 | 0.00 | 72 | 1005.1 |
| 20260505065223 | 68 | 176 | 0.0 | 0.0 | 0.00 | 0.00 | 0.00 | 73 | 1005.3 |
| 20260505064720 | 68 | 177 | 0.0 | 0.0 | 0.00 | 0.00 | 0.00 | 71 | 1005.5 |
| 20260505064218 | 68 | 178 | 0.0 | 0.0 | 0.00 | 0.00 | 0.00 | 70 | 1005.6 |
| 20260505063715 | 68 | 189 | 0.0 | 0.0 | 0.00 | 0.00 | 0.00 | 70 | 1005.6 |
| 20260505063211 | 68 | 231 | 0.0 | 0.0 | 0.00 | 0.00 | 0.00 | 69 | 1005.7 |
| 20260505062707 | 68 | 127 | 0.9 | 0.9 | 0.00 | 0.00 | 0.00 | 70 | 1005.9 |
| 20260505062205 | 69 | 203 | 0.0 | 0.0 | 0.00 | 0.00 | 0.00 | 67 | 1005.8 |
| 20260505061702 | 69 | 184 | 3.5 | 4.3 | 0.00 | 0.00 | 0.00 | 67 | 1005.8 |
| 20260505061200 | 69 | 141 | 1.7 | 2.6 | 0.00 | 0.00 | 0.00 | 68 | 1005.7 |
| 20260505060657 | 69 | 31 | 1.7 | 1.7 | 0.00 | 0.00 | 0.00 | 70 | 1005.3 |
| 20260505060154 | 69 | 113 | 0.9 | 0.9 | 0.00 | 0.00 | 0.00 | 70 | 1005.5 |
| 20260505055649 | 69 | 210 | 0.9 | 0.9 | 0.00 | 0.00 | 0.00 | 68 | 1005.1 |
| 20260505055146 | 69 | 214 | 0.9 | 1.7 | 0.00 | 0.00 | 0.00 | 68 | 1004.9 |
| 20260505054643 | 69 | 201 | 0.9 | 1.7 | 0.00 | 0.00 | 0.00 | 70 | 1004.5 |
| 20260505054141 | 69 | 193 | 1.7 | 1.7 | 0.00 | 0.00 | 0.00 | 69 | 1004.3 |
| 20260505053639 | 69 | 169 | 0.9 | 0.9 | 0.00 | 0.00 | 0.00 | 69 | 1004.2 |
| 20260505053135 | 69 | 214 | 1.7 | 1.7 | 0.00 | 0.00 | 0.00 | 67 | 1004.2 |
| 20260505052632 | 69 | 214 | 1.7 | 1.7 | 0.00 | 0.00 | 0.00 | 67 | 1004.0 |
| 20260505052129 | 69 | 179 | 0.9 | 1.7 | 0.00 | 0.00 | 0.00 | 69 | 1004.2 |
| 20260505051626 | 69 | 186 | 0.9 | 1.7 | 0.00 | 0.00 | 0.00 | 67 | 1004.4 |
| 20260505051124 | 70 | 195 | 0.0 | 0.0 | 0.00 | 0.00 | 0.00 | 69 | 1004.5 |
| 20260505050622 | 70 | 198 | 1.7 | 1.7 | 0.00 | 0.00 | 0.00 | 67 | 1004.6 |
| 20260505050120 | 70 | 184 | 0.9 | 1.7 | 0.00 | 0.00 | 0.00 | 68 | 1004.6 |
| 20260505041549 | 71 | 226 | 0.9 | 0.9 | 0.00 | 0.00 | 0.00 | 62 | 1005.6 |
| 20260505041047 | 71 | 191 | 2.6 | 2.6 | 0.00 | 0.00 | 0.00 | 62 | 1005.3 |
| 20260505040544 | 72 | 204 | 1.7 | 1.7 | 0.00 | 0.00 | 0.00 | 64 | 1005.6 |
| 20260505040041 | 71 | 184 | 3.5 | 5.2 | 0.00 | 0.00 | 0.00 | 62 | 1005.5 |
| 20260505035537 | 71 | 197 | 1.7 | 2.6 | 0.00 | 0.00 | 0.00 | 63 | 1005.6 |
| 20260505035034 | 72 | 188 | 2.6 | 2.6 | 0.00 | 0.00 | 0.00 | 63 | 1005.7 |
| 20260505034530 | 72 | 217 | 0.9 | 0.9 | 0.00 | 0.00 | 0.00 | 63 | 1005.7 |
| 20260505034027 | 72 | 202 | 0.0 | 0.0 | 0.00 | 0.00 | 0.00 | 62 | 1005.8 |
| 20260505033524 | 72 | 194 | 0.0 | 0.0 | 0.00 | 0.00 | 0.00 | 62 | 1005.9 |
| 20260505033023 | 72 | 194 | 0.0 | 0.0 | 0.00 | 0.00 | 0.00 | 63 | 1005.9 |
| 20260505032520 | 72 | 188 | 0.9 | 0.9 | 0.00 | 0.00 | 0.00 | 63 | 1005.7 |
| 20260505032016 | 73 | 200 | 0.9 | 0.9 | 0.00 | 0.00 | 0.00 | 61 | 1005.8 |
| 20260505031514 | 73 | 214 | 1.7 | 1.7 | 0.00 | 0.00 | 0.00 | 59 | 1005.6 |
| 20260505031010 | 73 | 181 | 1.7 | 1.7 | 0.00 | 0.00 | 0.00 | 59 | 1005.7 |
| 20260505030507 | 73 | 204 | 3.5 | 5.2 | 0.00 | 0.00 | 0.00 | 59 | 1005.2 |
| 20260505030003 | 73 | 183 | 2.6 | 2.6 | 0.00 | 0.00 | 0.00 | 59 | 1005.2 |
| 20260505025459 | 73 | 206 | 2.6 | 2.6 | 0.00 | 0.00 | 0.00 | 61 | 1005.3 |
| 20260505024958 | 73 | 203 | 0.0 | 0.0 | 0.00 | 0.00 | 0.00 | 59 | 1005.1 |
| 20260505024454 | 74 | 218 | 0.9 | 1.7 | 0.00 | 0.00 | 0.00 | 59 | 1005.2 |
| 20260505023952 | 74 | 221 | 1.7 | 1.7 | 0.00 | 0.00 | 0.00 | 57 | 1005.0 |
| 20260505023448 | 74 | 208 | 0.9 | 1.7 | 0.00 | 0.00 | 0.00 | 57 | 1004.9 |
| 20260505022946 | 74 | 177 | 2.6 | 4.3 | 0.00 | 0.00 | 0.00 | 59 | 1005.0 |
| 20260505022444 | 74 | 222 | 3.5 | 4.3 | 0.00 | 0.00 | 0.00 | 58 | 1004.8 |
| 20260505021941 | 74 | 200 | 1.7 | 1.7 | 0.00 | 0.00 | 0.00 | 59 | 1004.7 |
| 20260505021437 | 74 | 205 | 0.0 | 0.0 | 0.00 | 0.00 | 0.00 | 63 | 1004.9 |
| 20260505020933 | 74 | 197 | 0.0 | 0.0 | 0.00 | 0.00 | 0.00 | 61 | 1004.7 |
| 20260505020428 | 74 | 197 | 3.5 | 4.3 | 0.00 | 0.00 | 0.00 | 57 | 1004.6 |
| 20260505015925 | 74 | 201 | 0.0 | 0.0 | 0.00 | 0.00 | 0.00 | 59 | 1004.4 |
| 20260505015422 | 74 | 211 | 0.9 | 1.7 | 0.00 | 0.00 | 0.00 | 61 | 1004.4 |
| 20260505014920 | 74 | 200 | 0.0 | 0.0 | 0.00 | 0.00 | 0.00 | 62 | 1004.0 |
| 20260505014416 | 74 | 200 | 2.6 | 2.6 | 0.00 | 0.00 | 0.00 | 59 | 1004.2 |
| 20260505013913 | 74 | 175 | 2.6 | 2.6 | 0.00 | 0.00 | 0.00 | 61 | 1003.9 |
| 20260505013410 | 73 | 208 | 0.9 | 0.9 | 0.00 | 0.00 | 0.00 | 65 | 1004.0 |
| 20260505012908 | 73 | 199 | 0.0 | 0.0 | 0.00 | 0.00 | 0.00 | 65 | 1004.0 |
| 20260505012406 | 74 | 186 | 0.0 | 0.0 | 0.00 | 0.00 | 0.00 | 62 | 1003.9 |
| 20260505011902 | 74 | 186 | 0.0 | 0.0 | 0.00 | 0.00 | 0.00 | 63 | 1004.1 |
| 20260505011359 | 74 | 185 | 0.0 | 0.0 | 0.00 | 0.00 | 0.00 | 61 | 1003.9 |
| 20260505010855 | 75 | 171 | 0.0 | 0.0 | 0.00 | 0.00 | 0.00 | 61 | 1003.7 |
| 20260505010351 | 75 | 185 | 0.0 | 0.0 | 0.00 | 0.00 | 0.00 | 60 | 1003.9 |
| 20260505005847 | 75 | 193 | 0.9 | 0.9 | 0.00 | 0.00 | 0.00 | 59 | 1003.5 |
| 20260505005344 | 76 | 198 | 0.9 | 1.7 | 0.00 | 0.00 | 0.00 | 60 | 1003.6 |
| 20260505004842 | 76 | 204 | 2.6 | 2.6 | 0.00 | 0.00 | 0.00 | 55 | 1003.6 |
| 20260505004338 | 77 | 194 | 1.7 | 1.7 | 0.00 | 0.00 | 0.00 | 58 | 1003.4 |
| 20260505003835 | 76 | 210 | 2.6 | 2.6 | 0.00 | 0.00 | 0.00 | 56 | 1003.3 |
| 20260505003333 | 77 | 204 | 0.9 | 0.9 | 0.00 | 0.00 | 0.00 | 59 | 1003.4 |
| 20260505002828 | 77 | 212 | 0.0 | 0.0 | 0.00 | 0.00 | 0.00 | 56 | 1003.3 |
| 20260505002325 | 77 | 190 | 0.9 | 0.9 | 0.00 | 0.00 | 0.00 | 57 | 1003.4 |
| 20260505001824 | 77 | 211 | 2.6 | 2.6 | 0.00 | 0.00 | 0.00 | 55 | 1003.1 |
| 20260505001320 | 77 | 177 | 3.5 | 4.3 | 0.00 | 0.00 | 0.00 | 55 | 1003.3 |
| 20260505000818 | 77 | 190 | 2.6 | 2.6 | 0.00 | 0.00 | 0.00 | 57 | 1003.5 |
| 20260505000315 | 78 | 210 | 2.6 | 2.6 | 0.00 | 0.00 | 0.00 | 53 | 1003.6 |
| 20260504235812 | 78 | 211 | 4.3 | 5.2 | 0.00 | 0.00 | 0.00 | 52 | 1003.2 |
| 20260504235309 | 78 | 201 | 4.3 | 6.1 | 0.00 | 0.00 | 0.00 | 51 | 1003.3 |
| 20260504234806 | 78 | 187 | 3.5 | 4.3 | 0.00 | 0.00 | 0.00 | 51 | 1003.1 |
| 20260504234303 | 78 | 187 | 3.5 | 4.3 | 0.00 | 0.00 | 0.00 | 53 | 1003.1 |
| 20260504233759 | 78 | 179 | 5.2 | 6.1 | 0.00 | 0.00 | 0.00 | 51 | 1003.3 |
| 20260504233255 | 78 | 211 | 3.5 | 5.2 | 0.00 | 0.00 | 0.00 | 54 | 1003.2 |
| 20260504232752 | 78 | 210 | 2.6 | 2.6 | 0.00 | 0.00 | 0.00 | 52 | 1003.3 |
| 20260504232249 | 79 | 204 | 7.0 | 8.7 | 0.00 | 0.00 | 0.00 | 50 | 1003.4 |
| 20260504231746 | 79 | 194 | 7.8 | 7.8 | 0.00 | 0.00 | 0.00 | 50 | 1003.6 |
| 20260504231242 | 79 | 221 | 4.3 | 5.2 | 0.00 | 0.00 | 0.00 | 52 | 1003.3 |
| 20260504230738 | 79 | 180 | 5.2 | 7.0 | 0.00 | 0.00 | 0.00 | 50 | 1003.4 |
| 20260504230237 | 79 | 192 | 6.1 | 7.0 | 0.00 | 0.00 | 0.00 | 51 | 1003.5 |
| 20260504225736 | 80 | 211 | 6.1 | 7.0 | 0.00 | 0.00 | 0.00 | 50 | 1003.4 |
| 20260504225231 | 80 | 226 | 4.3 | 5.2 | 0.00 | 0.00 | 0.00 | 49 | 1003.5 |
| 20260504224729 | 80 | 221 | 5.2 | 6.1 | 0.00 | 0.00 | 0.00 | 49 | 1003.5 |
| 20260504224226 | 80 | 233 | 2.6 | 2.6 | 0.00 | 0.00 | 0.00 | 50 | 1003.3 |
| 20260504223722 | 81 | 248 | 4.3 | 5.2 | 0.00 | 0.00 | 0.00 | 49 | 1003.4 |
| 20260504223218 | 81 | 236 | 5.2 | 7.0 | 0.00 | 0.00 | 0.00 | 47 | 1003.4 |
| 20260504222715 | 81 | 211 | 4.3 | 5.2 | 0.00 | 0.00 | 0.00 | 48 | 1003.2 |
| 20260504222212 | 81 | 255 | 4.3 | 5.2 | 0.00 | 0.00 | 0.00 | 48 | 1003.4 |
| 20260504221709 | 81 | 205 | 6.1 | 8.7 | 0.00 | 0.00 | 0.00 | 47 | 1003.3 |
| 20260504221206 | 81 | 264 | 9.6 | 11.3 | 0.00 | 0.00 | 0.00 | 47 | 1003.4 |
| 20260504220702 | 81 | 216 | 9.6 | 12.2 | 0.00 | 0.00 | 0.00 | 46 | 1003.5 |
| 20260504220200 | 82 | 201 | 8.7 | 9.6 | 0.00 | 0.00 | 0.00 | 46 | 1003.2 |
| 20260504215656 | 81 | 195 | 7.8 | 9.6 | 0.00 | 0.00 | 0.00 | 45 | 1003.7 |
| 20260504215154 | 81 | 194 | 8.7 | 11.3 | 0.00 | 0.00 | 0.00 | 46 | 1003.6 |
| 20260504214649 | 81 | 201 | 6.1 | 7.8 | 0.00 | 0.00 | 0.00 | 46 | 1003.5 |
| 20260504214146 | 81 | 198 | 6.1 | 8.7 | 0.00 | 0.00 | 0.00 | 45 | 1003.6 |
| 20260504213642 | 81 | 243 | 11.3 | 13.0 | 0.00 | 0.00 | 0.00 | 47 | 1003.8 |
| 20260504213139 | 82 | 209 | 3.5 | 5.2 | 0.00 | 0.00 | 0.00 | 45 | 1003.6 |
| 20260504212636 | 82 | 193 | 7.8 | 9.6 | 0.00 | 0.00 | 0.00 | 46 | 1003.7 |
| 20260504212132 | 82 | 225 | 5.2 | 7.8 | 0.00 | 0.00 | 0.00 | 45 | 1003.6 |
| 20260504211630 | 82 | 225 | 6.1 | 7.8 | 0.00 | 0.00 | 0.00 | 45 | 1003.8 |
| 20260504211126 | 82 | 255 | 8.7 | 11.3 | 0.00 | 0.00 | 0.00 | 45 | 1003.8 |
| 20260504210624 | 82 | 196 | 7.0 | 9.6 | 0.00 | 0.00 | 0.00 | 46 | 1003.7 |
| 20260504210120 | 82 | 197 | 7.0 | 8.7 | 0.00 | 0.00 | 0.00 | 46 | 1003.8 |
| 20260504205618 | 81 | 203 | 7.8 | 9.6 | 0.00 | 0.00 | 0.00 | 46 | 1003.9 |
| 20260504205115 | 82 | 209 | 4.3 | 5.2 | 0.00 | 0.00 | 0.00 | 48 | 1003.8 |
| 20260504204614 | 82 | 184 | 6.1 | 7.0 | 0.00 | 0.00 | 0.00 | 46 | 1003.7 |
| 20260504204112 | 82 | 230 | 7.0 | 7.0 | 0.00 | 0.00 | 0.00 | 46 | 1003.9 |
| 20260504203611 | 82 | 236 | 5.2 | 5.2 | 0.00 | 0.00 | 0.00 | 48 | 1004.0 |
| 20260504203108 | 81 | 219 | 5.2 | 6.1 | 0.00 | 0.00 | 0.00 | 50 | 1003.7 |
| 20260504202603 | 82 | 216 | 4.3 | 6.1 | 0.00 | 0.00 | 0.00 | 47 | 1004.3 |
| 20260504202100 | 81 | 223 | 7.0 | 9.6 | 0.00 | 0.00 | 0.00 | 47 | 1004.2 |
| 20260504201557 | 81 | 213 | 11.3 | 13.0 | 0.00 | 0.00 | 0.00 | 46 | 1004.1 |
| 20260504201055 | 81 | 225 | 6.1 | 7.8 | 0.00 | 0.00 | 0.00 | 50 | 1004.1 |
| 20260504200550 | 81 | 189 | 3.5 | 4.3 | 0.00 | 0.00 | 0.00 | 47 | 1004.1 |
| 20260504200048 | 81 | 233 | 3.5 | 5.2 | 0.00 | 0.00 | 0.00 | 48 | 1004.3 |
| 20260504195544 | 81 | 201 | 6.1 | 7.8 | 0.00 | 0.00 | 0.00 | 45 | 1004.2 |
| 20260504195040 | 81 | 247 | 6.1 | 7.8 | 0.00 | 0.00 | 0.00 | 49 | 1004.6 |
| 20260504194537 | 81 | 195 | 5.2 | 6.1 | 0.00 | 0.00 | 0.00 | 51 | 1004.6 |
| 20260504194032 | 81 | 214 | 3.5 | 5.2 | 0.00 | 0.00 | 0.00 | 48 | 1004.6 |
| 20260504193529 | 81 | 225 | 6.1 | 7.0 | 0.00 | 0.00 | 0.00 | 50 | 1004.5 |
| 20260504193028 | 81 | 202 | 5.2 | 6.1 | 0.00 | 0.00 | 0.00 | 51 | 1004.7 |
| 20260504192526 | 80 | 208 | 7.8 | 9.6 | 0.00 | 0.00 | 0.00 | 49 | 1004.6 |
| 20260504192024 | 80 | 224 | 6.1 | 8.7 | 0.00 | 0.00 | 0.00 | 51 | 1004.7 |
| 20260504191521 | 80 | 207 | 4.3 | 5.2 | 0.00 | 0.00 | 0.00 | 50 | 1004.7 |
| 20260504191017 | 79 | 212 | 7.0 | 11.3 | 0.00 | 0.00 | 0.00 | 48 | 1004.8 |
| 20260504190514 | 79 | 224 | 5.2 | 7.0 | 0.00 | 0.00 | 0.00 | 50 | 1004.8 |
| 20260504190010 | 79 | 262 | 4.3 | 7.0 | 0.00 | 0.00 | 0.00 | 50 | 1004.9 |
| 20260504185507 | 79 | 256 | 8.7 | 11.3 | 0.00 | 0.00 | 0.00 | 50 | 1004.7 |
| 20260504185004 | 79 | 244 | 4.3 | 5.2 | 0.00 | 0.00 | 0.00 | 54 | 1004.8 |
| 20260504184459 | 79 | 216 | 4.3 | 5.2 | 0.00 | 0.00 | 0.00 | 49 | 1005.0 |
| 20260504183955 | 79 | 235 | 4.3 | 5.2 | 0.00 | 0.00 | 0.00 | 54 | 1005.0 |
| 20260504183452 | 78 | 213 | 3.5 | 4.3 | 0.00 | 0.00 | 0.00 | 54 | 1004.8 |
| 20260504182950 | 78 | 271 | 4.3 | 5.2 | 0.00 | 0.00 | 0.00 | 53 | 1005.2 |
| 20260504182446 | 78 | 228 | 4.3 | 5.2 | 0.00 | 0.00 | 0.00 | 52 | 1005.0 |
| 20260504181944 | 78 | 179 | 4.3 | 6.1 | 0.00 | 0.00 | 0.00 | 51 | 1004.7 |
| 20260504181441 | 77 | 205 | 4.3 | 5.2 | 0.00 | 0.00 | 0.00 | 51 | 1004.9 |
| 20260504180939 | 77 | 245 | 3.5 | 4.3 | 0.00 | 0.00 | 0.00 | 55 | 1005.2 |
| 20260504180438 | 77 | 241 | 3.5 | 4.3 | 0.00 | 0.00 | 0.00 | 52 | 1005.2 |
| 20260504175936 | 76 | 245 | 3.5 | 4.3 | 0.00 | 0.00 | 0.00 | 53 | 1004.8 |
| 20260504175432 | 76 | 245 | 4.3 | 6.1 | 0.00 | 0.00 | 0.00 | 53 | 1005.0 |
| 20260504174930 | 76 | 188 | 2.6 | 4.3 | 0.00 | 0.00 | 0.00 | 52 | 1005.2 |
| 20260504174427 | 76 | 183 | 5.2 | 5.2 | 0.00 | 0.00 | 0.00 | 51 | 1005.0 |
| 20260504173925 | 76 | 224 | 5.2 | 6.1 | 0.00 | 0.00 | 0.00 | 52 | 1004.9 |
| 20260504173421 | 75 | 191 | 6.1 | 7.0 | 0.00 | 0.00 | 0.00 | 51 | 1005.1 |
| 20260504172919 | 75 | 199 | 6.1 | 7.0 | 0.00 | 0.00 | 0.00 | 51 | 1004.8 |
| 20260504172415 | 74 | 212 | 2.6 | 2.6 | 0.00 | 0.00 | 0.00 | 52 | 1005.0 |
| 20260504171911 | 74 | 204 | 2.6 | 2.6 | 0.00 | 0.00 | 0.00 | 51 | 1005.5 |
| 20260504171408 | 74 | 215 | 4.3 | 4.3 | 0.00 | 0.00 | 0.00 | 53 | 1005.7 |
| 20260504170905 | 74 | 252 | 4.3 | 5.2 | 0.00 | 0.00 | 0.00 | 52 | 1005.8 |
| 20260504170402 | 74 | 218 | 3.5 | 4.3 | 0.00 | 0.00 | 0.00 | 54 | 1005.9 |
| 20260504160320 | 76 | 243 | 3.5 | 5.2 | 0.00 | 0.00 | 0.00 | 53 | 1006.1 |
| 20260504150745 | 74 | 199 | 5.2 | 7.0 | 0.00 | 0.00 | 0.00 | 49 | 1005.9 |
| 20260504150242 | 73 | 241 | 7.0 | 7.0 | 0.00 | 0.00 | 0.00 | 52 | 1006.3 |
| 20260504141212 | 71 | 209 | 7.0 | 7.8 | 0.00 | 0.00 | 0.00 | 51 | 1006.7 |
| 20260504140708 | 71 | 206 | 7.0 | 7.8 | 0.00 | 0.00 | 0.00 | 52 | 1006.8 |
| 20260504140204 | 70 | 203 | 3.5 | 6.1 | 0.00 | 0.00 | 0.00 | 54 | 1006.9 |
| 20260504130632 | 66 | 190 | 1.7 | 2.6 | 0.00 | 0.00 | 0.00 | 58 | 1007.2 |
| 20260504130129 | 66 | 193 | 3.5 | 4.3 | 0.00 | 0.00 | 0.00 | 58 | 1007.3 |
| 20260504110520 | 64 | 181 | 2.6 | 2.6 | 0.00 | 0.00 | 0.00 | 60 | 1007.5 |